Flag for Switzerland Weather past 2 weeks in Schwyz, Schwyz, Switzerland

Now
64 °F

Overcast.


Feels Like: 64 °F
Forecast: 56 / 79 °F
Wind: No wind

Location: Altdorf

Current Time: Jul 24, 2014 at 2:52:24 AM

Latest Report: Jul 24, 2014 at 2:00 AM


Visibility: 11 mi

Pressure: 29.85 "Hg

Humidity: 90%

Dew point: 61 °F

Location of SchwyzLocation

Historic Weather in Schwyz — Graph

°F

Schwyz temperature yesterday

Maximum temperature yesterday: 75 °F (at 4:00 PM)
Minimum temperature yesterday: 62 °F (at 3:00 AM)
Average temperature yesterday: 68 °F

Past Weeks' High & Low Weather Summary

 TemperatureHumidityPressure
High85 °F (Jul 20, 2:00 AM)96% (Jul 12, 3:00 AM)30.20 "Hg (Jul 12, 3:00 AM)
Low52 °F (Jul 10, 6:00 AM)31% (Jul 19, 8:00 PM)29.75 "Hg (Jul 20, 3:00 AM)
Average65 °F78%29.97 "Hg
* Reported Jul 9 1:00 AM — Jul 24 1:00 AM, Schwyz, Weather by CustomWeather, © 2014

Note: Actual official high and low records may vary slightly from our data, if they occured in-between our weather recording intervals... More about our weather records

Advertising

Schwyz weather history for previous 24 hours

 ConditionsComfort  
Time TempWeatherWind HumidityBarometerVisibility
1:00 AM
Jul 24
64 °FMild.1 mph93%29.86 "HgN/A
12:00 AM64 °FMild.1 mph91%29.86 "HgN/A
11:00 PM
Jul 23
67 °FMild.3 mph85%29.86 "HgN/A
10:00 PM67 °FMild.1 mph84%29.87 "HgN/A
9:00 PM70 °FMild.1 mph80%29.84 "HgN/A
8:00 PM73 °FOvercast.2 mph70%29.83 "Hg14 mi
7:00 PM73 °FMild.6 mph66%29.82 "HgN/A
6:00 PM74 °FMild.8 mph71%29.82 "HgN/A
5:00 PM74 °FOvercast.10 mph70%29.83 "Hg14 mi
4:00 PM75 °FMild.16 mph66%29.82 "HgN/A
3:00 PM75 °FMild.14 mph67%29.83 "HgN/A
6:00 AM63 °FMild.No wind96%29.98 "HgN/A
5:00 AM63 °FDrizzle. Overcast.No wind95%29.98 "Hg5 mi
4:00 AM63 °FMild.2 mph95%29.97 "HgN/A
3:00 AM62 °FCool.1 mph96%29.98 "HgN/A
2:00 AM63 °FMild.1 mph95%29.99 "HgN/A
Weather by CustomWeather, © 2014

See weather overviewHow to use our weather pages